Jackson, MS

8:23 PM CST on February 25, 2017 (GMT -0600)
Hawkins

Weather History for KHKS - September, 2012

Change the Weather History Date:

Thursday, September 13, 2012

  Actual Average (KJAN) Record (KJAN)
Temperature  
Mean Temperature 79 °F -  
Max Temperature 88 °F 88 °F 101 °F (1921)
Min Temperature 72 °F 66 °F 45 °F (1940)
Cooling Degree Days 14    
Growing Degree Days 29 (Base 50)    
Moisture  
Dew Point 67 °F    
Average Humidity 70    
Maximum Humidity 82    
Minimum Humidity 55    
Precipitation  
Precipitation 0.00 in - - ()
Sea Level Pressure  
Sea Level Pressure 30.14 in    
Wind  
Wind Speed 6 mph (ESE)    
Max Wind Speed 12 mph    
Max Gust Speed -    
Visibility 10 miles    
Events Rain    
Averages and records for this station are not official NWS values.
T = Trace of Precipitation, MM = Missing Value Source: NWS Daily Summary

Daily Weather History Graph

Daily Weather History Graph

Search for Another Location

Airport or City:

Trip Planner

Search our weather history database for the weather conditions in past years. The results will help you decide how hot, cold, wet, or windy it might be!

Date:

Astronomy

Sep. 13, 2012 Rise Set
Actual Time 6:43 AM CDT 7:08 PM CDT
Civil Twilight 6:19 AM CDT 7:33 PM CDT
Nautical Twilight 5:50 AM CDT 8:02 PM CDT
Astronomical Twilight 5:20 AM CDT 8:31 PM CDT
Moon 4:10 AM CDT (9/13) 5:27 PM CDT (9/13)
Length of Visible Light 13h 14m
Length of Day
12h 25m
Waning Crescent, 7% of the Moon is Illuminated
Sep 13
Waning Crescent
Sep 15
New
Sep 22
First Quarter
Sep 29
Full
Oct 8
Last Quarter

Hourly Weather History & Observations

Time (CDT) Temp. Heat Index Dew Point Humidity Pressure Visibility Wind Dir Wind Speed Gust Speed Precip Events Conditions
12:53 AM 75.0 °F - 69.1 °F 82% 30.14 in 10.0 mi ESE 5.8 mph - N/A   Overcast
1:53 AM 75.0 °F - 69.1 °F 82% 30.13 in 10.0 mi SE 8.1 mph - N/A   Overcast
2:53 AM 75.0 °F - 68.0 °F 79% 30.13 in 10.0 mi SE 5.8 mph - N/A   Overcast
3:53 AM 73.9 °F - 66.9 °F 79% 30.13 in 10.0 mi SE 6.9 mph - N/A   Overcast
4:53 AM 73.9 °F - 66.0 °F 76% 30.13 in 10.0 mi ESE 8.1 mph - N/A   Overcast
5:53 AM 73.0 °F - 64.9 °F 76% 30.14 in 10.0 mi ESE 3.5 mph - N/A   Overcast
6:53 AM 72.0 °F - 64.9 °F 78% 30.15 in 10.0 mi East 3.5 mph - 0.00 in Rain Light Rain
7:53 AM 73.0 °F - 64.9 °F 76% 30.16 in 10.0 mi East 3.5 mph - 0.00 in   Mostly Cloudy
8:53 AM 75.0 °F - 66.0 °F 73% 30.17 in 10.0 mi SE 5.8 mph - N/A   Scattered Clouds
9:53 AM 75.9 °F - 64.9 °F 69% 30.19 in 10.0 mi ESE 8.1 mph - N/A   Scattered Clouds
10:53 AM 81.0 °F 83.8 °F 68.0 °F 65% 30.18 in 10.0 mi ESE 9.2 mph - N/A   Mostly Cloudy
11:53 AM 84.9 °F 88.8 °F 69.1 °F 59% 30.17 in 10.0 mi SSE 9.2 mph - N/A   Scattered Clouds
12:53 PM 84.9 °F 88.2 °F 68.0 °F 57% 30.15 in 10.0 mi Variable 5.8 mph - N/A   Mostly Cloudy
2:53 PM 84.9 °F 88.2 °F 68.0 °F 57% 30.11 in 10.0 mi ENE 11.5 mph - N/A   Mostly Cloudy
3:53 PM 82.0 °F 86.3 °F 71.1 °F 69% 30.09 in 10.0 mi ENE 4.6 mph - 0.00 in   Clear
4:53 PM 86.0 °F 89.4 °F 68.0 °F 55% 30.08 in 10.0 mi East 9.2 mph - N/A   Clear
5:53 PM 82.9 °F 85.8 °F 68.0 °F 60% 30.09 in 10.0 mi East 3.5 mph - N/A   Clear
7:53 PM 78.1 °F - 68.0 °F 71% 30.12 in 10.0 mi ENE 3.5 mph - N/A   Partly Cloudy
8:53 PM 77.0 °F - 66.9 °F 71% 30.14 in 10.0 mi ENE 4.6 mph - N/A   Clear
9:53 PM 75.9 °F - 66.9 °F 74% 30.15 in 10.0 mi Calm Calm - N/A   Clear
10:53 PM 77.0 °F - 66.9 °F 71% 30.15 in 10.0 mi East 3.5 mph - N/A   Clear
11:53 PM 75.9 °F - 66.0 °F 71% 30.16 in 10.0 mi ESE 4.6 mph - N/A   Clear